[[{"header":{"parameterUnit":"m.s-1","parameterCategory":1,"la1":30.2991,"la2":30.254,"lo1":-89.0895,"lo2":-89.0444,"dy":0.0017,"dx":0.0017,"nx":28,"ny":28,"refTime":"2025-07-27T03:00:00:Z","depth":0,"parameterNumber":2,"parameterNumberName":"U-component_of_WINDS"},"data":[0,0,0,0,0,0,0,0,0,0,0,0,0,0,0,0,0,0,0,0,0,0,0,0,0,0,0,0,0,0,0,0,0,0,0,0,0,0,0,0,0,0,0,0,0,0,0,0,0,0,0,0,0,0,0,0,0,0,0.0095,0.0095,0,0.0099,0.0099,0.0099,0.0087,0.0086,0.0086,0.0085,0.009,0.009,0.0091,0,0,0,0,0,0,0,0,0,0,0,0,0,0.0074,0.0074,0.0095,0.0095,0.0095,0.0099,0.0099,0.0099,0.0087,0.0086,0.0086,0.0085,0.009,0.009,0.0091,0,0,0,0,0,0,0,0,0,0,0,0,0,0.0081,0.0074,0.0095,0.0089,0.0088,0.0099,0.0099,0.0099,0.0087,0.0086,0.0086,0.0085,0.0089,0.009,0.0091,0.0107,0,0,0.0093,0.0093,0,0,0,0,0,0,0,0,0.0081,0.0082,0.009,0.0089,0.0089,0.0092,0.0093,0.0102,0.0087,0.0087,0.0085,0.0085,0.0091,0.0091,0.0094,0.0107,0.0108,0.0093,0.0094,0.0094,0.0094,0,0,0,0,0,0,0,0.008,0.0081,0.0096,0.009,0.0089,0.0086,0.0086,0.0095,0.0092,0.0087,0.0086,0.0087,0.0091,0.0093,0.0094,0.0108,0.0093,0.0094,0.0094,0.0095,0.0133,0.0134,0,0,0,0,0,0,0.008,0.0081,0.0096,0.0096,0.0083,0.0087,0.0087,0.0091,0.0092,0.0092,0.0088,0.0087,0.0092,0.0093,0.0094,0.0111,0.0094,0.0095,0.0095,0.0133,0.0133,0.0134,0,0,0,0,0,0,0.008,0.0082,0.0096,0.0089,0.009,0.0088,0.0093,0.0092,0.0094,0.0092,0.0092,0.0091,0.0092,0.0093,0.0104,0.0111,0.0095,0.0096,0.0132,0.0133,0.0134,0.0148,0,0,0,0,0,0,0.0079,0.0082,0.0088,0.0089,0.0091,0.0106,0.0093,0.0092,0.0095,0.0094,0.0095,0.0095,0.0091,0.0103,0.0104,0.0112,0.0096,0.0131,0.0132,0.0133,0.0147,0.0149,0.0151,0,0,0,0,0,0.0079,0.0092,0.0089,0.0091,0.0099,0.0107,0.0108,0.0103,0.0096,0.0102,0.0101,0.0095,0.0111,0.0104,0.0106,0.0114,0.0131,0.0132,0.0133,0.0146,0.0149,0.0151,0,0,0,0,0,0,0.0093,0.0092,0.0088,0.0103,0.0105,0.0104,0.0112,0.0107,0.0111,0.011,0.0104,0.0104,0.0116,0.0116,0.0109,0.0129,0.0119,0.0121,0.0128,0.0131,0.0133,0.0133,0.0097,0,0,0,0,0,0.0098,0.0105,0.0104,0.0116,0.0118,0.0115,0.0118,0.0115,0.0117,0.0117,0.0117,0.0119,0.0124,0.0128,0.0133,0.0147,0.0146,0.0154,0.0156,0.0158,0.0159,0.0165,0.0168,0.0138,0.0138,0.0138,0,0,0.0108,0.0109,0.0113,0.0119,0.0121,0.0127,0.0116,0.0123,0.0128,0.0119,0.0128,0.0128,0.013,0.0142,0.0147,0.0143,0.0167,0.0159,0.0161,0.0161,0.0167,0.017,0.0172,0.0139,0.0139,0.0139,0,0,0.0129,0.0131,0.0141,0.0142,0.0144,0.0142,0.0144,0.0145,0.0144,0.0154,0.0146,0.0152,0.0161,0.0162,0.0164,0.0185,0.0179,0.0187,0.0198,0.0205,0.0207,0.0209,0.0215,0.0217,0.0188,0.0188,0.0188,0,0.0142,0.0151,0.0147,0.0155,0.0157,0.0149,0.0158,0.016,0.0163,0.0165,0.0159,0.017,0.0171,0.0182,0.0187,0.019,0.0191,0.0186,0.0207,0.0209,0.0211,0.0216,0.0219,0.0189,0.0189,0.0189,0.0189,0,0.0165,0.0172,0.018,0.0183,0.0186,0.0195,0.0191,0.0195,0.0191,0.0189,0.0199,0.0199,0.0204,0.0206,0.0203,0.0217,0.0214,0.0208,0.0198,0.0214,0.022,0.0222,0.019,0.019,0.019,0.019,0,0,0.0196,0.0196,0.0199,0.0199,0.02,0.0205,0.0213,0.0217,0.022,0.0222,0.0228,0.0236,0.023,0.0232,0.0229,0.0234,0.0249,0.0227,0.0227,0.023,0.0263,0.0267,0.027,0.0245,0.0246,0.0246,0.0263,0,0.0216,0.0229,0.0225,0.0238,0.0244,0.0236,0.0242,0.0243,0.0242,0.0246,0.0244,0.0249,0.0242,0.0243,0.0248,0.0246,0.0255,0.0245,0.025,0.025,0.0248,0.0273,0.0277,0.0292,0.0265,0.0265,0.0265,0,0.0241,0.0244,0.0258,0.0256,0.0259,0.0265,0.0267,0.0272,0.0272,0.0271,0.0273,0.0268,0.0275,0.0265,0.0274,0.0267,0.0269,0.0268,0.0269,0.0268,0.0258,0.0272,0.0298,0.0299,0.0269,0.0269,0.0268,0,0.026,0.0268,0.0276,0.0277,0.0277,0.0281,0.0281,0.0281,0.0283,0.0285,0.0286,0.029,0.0291,0.0294,0.0289,0.0283,0.0299,0.0289,0.0297,0.0297,0.03,0.0299,0.0325,0.0303,0.0303,0.0303,0.0302,0,0.0282,0.0291,0.0285,0.029,0.0299,0.0294,0.0302,0.0301,0.0301,0.0306,0.0299,0.0304,0.0298,0.0302,0.0299,0.0306,0.0307,0.0305,0.0304,0.0305,0.0305,0.0306,0.0304,0.0303,0.0303,0.0303,0.0303,0,0.0305,0.0301,0.031,0.0308,0.0308,0.0315,0.0313,0.0317,0.0315,0.0321,0.0322,0.0318,0.0322,0.0318,0.0322,0.032,0.0329,0.0327,0.0329,0.0328,0.0335,0.0334,0.0361,0.0364,0.0341,0.0341,0.0341,0,0.0318,0.0325,0.0323,0.0326,0.0326,0.033,0.0332,0.0327,0.0329,0.033,0.0334,0.0337,0.034,0.0346,0.0344,0.0346,0.0344,0.0353,0.0344,0.0344,0.0342,0.0341,0.0341,0.0354,0.0355,0.0355,0.0355,0,0.0343,0.034,0.0344,0.0346,0.0348,0.035,0.0351,0.0353,0.0348,0.0351,0.0354,0.0356,0.036,0.0363,0.0364,0.0364,0.0358,0.0358,0.036,0.036,0.0361,0.0359,0.0333,0.0357,0.0357,0.0357,0.0357,0.0357,0.036,0.0365,0.0364,0.0368,0.0368,0.0369,0.0372,0.037,0.0373,0.0375,0.0372,0.0377,0.0376,0.0378,0.0378,0.0381,0.0377,0.038,0.038,0.0381,0.0381,0.0361,0.0382,0.0382,0.0381,0.0381,0.0381,0,0.0383,0.0382,0.0385,0.0386,0.0389,0.0384,0.0384,0.0386,0.039,0.039,0.0392,0.0396,0.0399,0.0397,0.0399,0.0401,0.0399,0.0402,0.0401,0.0401,0.0385,0.0383,0.0404,0.0404,0.0404,0.0404,0.0404,0.0404,0.0395,0.0402,0.0399,0.0406,0.0405,0.0409,0.041,0.041,0.041,0.0414,0.0416,0.0415,0.0414,0.0415,0.0417,0.0417,0.0417,0.0421,0.0419,0.0404,0.0402,0.04,0.0398,0.0421,0.0421,0.0434,0.0434,0.0435]},{"header":{"parameterUnit":"m.s-1","parameterCategory":1,"la1":30.2991,"la2":30.254,"lo1":-89.0895,"lo2":-89.0444,"dy":0.0017,"dx":0.0017,"nx":28,"ny":28,"refTime":"2025-07-27T03:00:00:Z","depth":0,"parameterNumber":3,"parameterNumberName":"V-component_of_WINDS"},"data":[0,0,0,0,0,0,0,0,0,0,0,0,0,0,0,0,0,0,0,0,0,0,0,0,0,0,0,0,0,0,0,0,0,0,0,0,0,0,0,0,0,0,0,0,0,0,0,0,0,0,0,0,0,0,0,0,0,0,0.2912,0.2912,0,0.2894,0.2894,0.2894,0.2848,0.2847,0.2846,0.2845,0.2827,0.2828,0.2828,0,0,0,0,0,0,0,0,0,0,0,0,0,0.2905,0.2905,0.2912,0.2911,0.2911,0.2894,0.2894,0.2894,0.2848,0.2847,0.2846,0.2845,0.2827,0.2828,0.2828,0,0,0,0,0,0,0,0,0,0,0,0,0,0.29,0.2905,0.2912,0.2887,0.2884,0.2894,0.2894,0.2894,0.2849,0.2847,0.2846,0.2844,0.2827,0.2828,0.2828,0.2861,0,0,0.283,0.283,0,0,0,0,0,0,0,0,0.29,0.29,0.2891,0.2888,0.2886,0.2872,0.2885,0.2883,0.2849,0.2862,0.2845,0.2844,0.2843,0.2842,0.2842,0.286,0.2859,0.283,0.2831,0.2831,0.2831,0,0,0,0,0,0,0,0.29,0.29,0.2905,0.289,0.2887,0.2876,0.2873,0.2884,0.2861,0.2861,0.2858,0.2856,0.2842,0.2842,0.2842,0.2859,0.283,0.2831,0.2831,0.2831,0.2902,0.2903,0,0,0,0,0,0,0.2905,0.2901,0.2905,0.2904,0.2889,0.2877,0.2874,0.2878,0.2861,0.2857,0.2857,0.2854,0.2841,0.2841,0.2841,0.2877,0.2831,0.2831,0.2832,0.29,0.2902,0.2904,0,0,0,0,0,0,0.2905,0.2905,0.2906,0.2902,0.2901,0.2879,0.2883,0.2878,0.2878,0.2858,0.2854,0.2862,0.284,0.284,0.2856,0.2876,0.2832,0.2832,0.2898,0.2901,0.2903,0.2952,0,0,0,0,0,0,0.2905,0.2906,0.2918,0.2902,0.2901,0.2922,0.2884,0.2879,0.288,0.2875,0.2861,0.2858,0.2839,0.2855,0.2857,0.2876,0.2833,0.2897,0.29,0.2902,0.2948,0.2955,0.2961,0,0,0,0,0,0.2904,0.2933,0.2919,0.292,0.2917,0.2923,0.2923,0.2901,0.2881,0.2894,0.288,0.2858,0.2874,0.2857,0.2859,0.2879,0.2895,0.2899,0.2902,0.2945,0.2954,0.2961,0,0,0,0,0,0,0.2952,0.2931,0.2915,0.2939,0.2934,0.2916,0.2931,0.2911,0.2911,0.2907,0.288,0.2877,0.2897,0.2889,0.2871,0.2909,0.2881,0.2884,0.2913,0.2921,0.2928,0.2929,0.2833,0,0,0,0,0,0.2966,0.2973,0.2954,0.2977,0.2975,0.2953,0.2956,0.2939,0.2932,0.2929,0.2917,0.2911,0.2914,0.2917,0.2919,0.2947,0.2942,0.2961,0.2967,0.2973,0.2977,0.2989,0.2997,0.2915,0.2915,0.2915,0,0,0.2994,0.2983,0.2989,0.2986,0.298,0.2988,0.2952,0.2962,0.2967,0.2931,0.2945,0.2936,0.2927,0.2949,0.2958,0.2943,0.2998,0.2977,0.2982,0.2982,0.2994,0.3001,0.3008,0.2917,0.2917,0.2916,0,0,0.3048,0.3041,0.3059,0.3053,0.3044,0.3029,0.3033,0.3018,0.3011,0.3025,0.2997,0.3003,0.3009,0.3004,0.3002,0.3053,0.3032,0.3054,0.3089,0.3102,0.3108,0.3114,0.3132,0.3138,0.3058,0.3058,0.3058,0,0.3084,0.3095,0.3071,0.3083,0.3082,0.3049,0.3066,0.3062,0.3054,0.3053,0.3037,0.3044,0.3036,0.3055,0.3067,0.3067,0.3071,0.3056,0.3109,0.3115,0.312,0.3136,0.3143,0.3061,0.306,0.306,0.306,0,0.3139,0.3147,0.3163,0.3155,0.3156,0.3171,0.3148,0.3152,0.3135,0.3122,0.3136,0.3125,0.3123,0.3127,0.3111,0.3143,0.3135,0.3114,0.3085,0.3131,0.3146,0.3152,0.3065,0.3064,0.3063,0.3062,0,0,0.3225,0.3203,0.3209,0.3205,0.3191,0.3196,0.3209,0.3207,0.3211,0.3206,0.3215,0.3221,0.3202,0.32,0.3182,0.3193,0.3234,0.3171,0.3171,0.3183,0.3268,0.3284,0.3292,0.3219,0.322,0.3221,0.3269,0,0.3276,0.3297,0.3275,0.33,0.3306,0.3274,0.3285,0.3277,0.3265,0.3268,0.3254,0.3259,0.3233,0.3231,0.3241,0.3227,0.325,0.3223,0.3228,0.3228,0.3231,0.3299,0.3316,0.3362,0.3275,0.3276,0.3276,0,0.3339,0.3337,0.3362,0.3346,0.3348,0.3358,0.3354,0.3358,0.3348,0.3338,0.3335,0.3314,0.3324,0.3296,0.331,0.3292,0.3292,0.3285,0.3286,0.3286,0.3255,0.3301,0.3376,0.3383,0.3285,0.3285,0.3284,0,0.3399,0.3402,0.3417,0.3414,0.3396,0.3403,0.3396,0.3385,0.3385,0.3381,0.3381,0.3379,0.3377,0.3376,0.3354,0.3336,0.337,0.3341,0.3362,0.3363,0.3371,0.3371,0.3447,0.3372,0.3372,0.3371,0.3371,0,0.3458,0.3475,0.3443,0.3453,0.347,0.3444,0.3462,0.3451,0.3441,0.3448,0.3419,0.3426,0.3397,0.34,0.3383,0.3397,0.3397,0.3389,0.3384,0.3391,0.3392,0.3391,0.3388,0.3373,0.3373,0.3372,0.3372,0,0.3528,0.3507,0.3522,0.3502,0.3498,0.3512,0.3495,0.3503,0.3488,0.3496,0.3497,0.3473,0.3476,0.3454,0.3452,0.344,0.3462,0.3451,0.3465,0.3462,0.3485,0.3483,0.3563,0.3572,0.3491,0.3492,0.3492,0,0.3568,0.358,0.3561,0.3563,0.3557,0.3561,0.3561,0.3535,0.3536,0.3525,0.3534,0.3533,0.3532,0.3537,0.352,0.3518,0.3507,0.3535,0.3507,0.3513,0.3507,0.3507,0.3508,0.3542,0.3543,0.3543,0.3544,0,0.364,0.3629,0.3629,0.3626,0.3626,0.3623,0.3617,0.362,0.3592,0.3594,0.3596,0.3595,0.3592,0.3592,0.3587,0.3578,0.3557,0.3553,0.3558,0.3566,0.3573,0.3569,0.3481,0.3551,0.3551,0.355,0.355,0.355,0.3696,0.3704,0.3693,0.3694,0.3687,0.3682,0.3688,0.3673,0.3674,0.367,0.3655,0.3659,0.3648,0.3638,0.3631,0.3634,0.362,0.3628,0.3629,0.3632,0.3636,0.3572,0.3633,0.3633,0.3632,0.3632,0.3632,0,0.3766,0.3757,0.3758,0.3751,0.3751,0.373,0.3722,0.3725,0.3729,0.372,0.3719,0.372,0.372,0.3702,0.3699,0.3704,0.3694,0.3705,0.3704,0.3702,0.3648,0.3644,0.3713,0.3713,0.3713,0.3713,0.3713,0.3713,0.3803,0.3817,0.3804,0.3813,0.3803,0.3807,0.3804,0.3799,0.3792,0.3795,0.3794,0.3783,0.377,0.3766,0.3764,0.3759,0.3759,0.3773,0.3764,0.3714,0.3706,0.3699,0.3695,0.3773,0.3773,0.3818,0.3818,0.3819]}]]